Regional Weather Roundup
Issued by NWS

Home | Current Version | Previous Version | Text Only | Print | Product List | Glossary Off
Versions: 1 2 3 4 5 6 7 8 9 10 11 12 13 14 15 16 17 18 19 20 21 22 23 24 25 26 27 28 29 30 31 32 33 34 35 36 37 38 39 40 41 42 43 44 45 46 47 48 49 50

000
ASUS43 KTOP 210059
RWRKS

WEATHER ROUNDUP FOR KANSAS
NATIONAL WEATHER SERVICE GOODLAND KS
700 PM CST THU NOV 20 2014

NOTE:  "FAIR" INDICATES FEW OR NO CLOUDS BELOW 12,000 FEET WITH NO
SIGNIFICANT WEATHER AND/OR OBSTRUCTIONS TO VISIBILITY.

KSZ001>006-013>018-027>032-041>047-210200-
NORTHWEST KANSAS

CITY           SKY/WX    TMP DP  RH WIND       PRES   REMARKS
GOODLAND       PTCLDY    31  14  49 SE8       30.03R
HAYS           CLEAR     32  18  55 SE9       30.09R
HILL CITY      CLEAR     32  21  64 E7        30.07R
RUSSELL        CLEAR     37  22  54 E12       30.09R WCI  29
$$

KSZ061>065-074>080-084>089-210200-
SOUTHWEST KANSAS

CITY           SKY/WX    TMP DP  RH WIND       PRES   REMARKS
DODGE CITY     PTCLDY    37  26  64 SE8       30.06R
ELKHART          N/A     35  22  59 SE8         N/A
GARDEN CITY    PTCLDY    38  26  62 SE9       30.04R
GREAT BEND     PTCLDY    36  21  55 E7        30.10R
LIBERAL        CLEAR     43  27  52 E8        30.05R
$$

KSZ066>073-081>083-090>101-210200-
SOUTHEAST KANSAS

CITY           SKY/WX    TMP DP  RH WIND       PRES   REMARKS
CHANUTE        CLEAR     37  24  59 NE8       30.16R
COFFEYVILLE    CLEAR     37  26  64 NE6       30.15R
HUTCHINSON     PTCLDY    37  23  56 E9        30.12R
MEDICINE LODGE   N/A     40  28  62 E7        30.08R
NEWTON         PTCLDY    34  19  55 E8        30.14R
PARSONS        CLEAR     40  25  55 NE7       30.16R
WICHITA INTL   MOCLDY    42  24  49 E12       30.11R
WICHITA JABRA  PTCLDY    37  24  59 E8        30.12R
WINFIELD       CLEAR     42  25  50 E9        30.12R
$$

KSZ007>012-019>026-033>040-048>060-102>105-210200-
NORTHEAST KANSAS

CITY           SKY/WX    TMP DP  RH WIND       PRES   REMARKS
CONCORDIA      CLEAR     30  19  63 E7        30.15R
EMPORIA        CLEAR     31  19  61 E8        30.17R
LAWRENCE       CLEAR     30  18  60 NE7       30.22R
MANHATTAN      CLEAR     32  19  58 E3        30.19R
OLATHE IND     CLEAR     30  18  60 NE3       30.22R
OLATHE EXE     CLEAR     32  18  56 E5        30.21R
SALINA         CLEAR     38  20  48 E9        30.14R
TOPEKA BILLARD CLEAR     30  18  60 E5        30.21R
TOPEKA FORBES  CLEAR     33  18  53 E6        30.20R
$$


USA.gov is the U.S. government's official web portal to all federal, state and local government web resources and services.